Regional Weather Roundup
Issued by NWS Midland/Odessa, TX

Skip options and go directly to product.
Home | Oldest Version | Previous Version | Current Version | All | Graphics & Text | Save Text | Print | Product List | Glossary On

Skip product version selection by date and time.   
404
ASUS44 KMAF 211010
RWRMAF
MIDLAND AREA WEATHER ROUNDUP
NATIONAL WEATHER SERVICE MIDLAND TX
500 AM CDT THU AUG 21 2014

...IN SOUTHWEST TEXAS AND SOUTHEAST NEW MEXICO...

CITY           SKY/WX    TMP DP  RH WIND       PRES   REMARKS
ALPINE         MOCLDY    71  61  70 S7        30.15R
ANDREWS        FAIR      74  63  66 S8        29.99S
ARTESIA        CLEAR     70  59  68 CALM      29.97R
BIG SPRING     PTCLDY    79  66  64 SE16      30.01R
CARLSBAD       PTCLDY    72  61  68 E7        29.94S
DRYDEN           N/A     80  63  55 E7        29.97R
FORT STOCKTON  MOCLDY    73  63  70 S12       29.99R
GUAD PASS      PTCLDY    67  54  63 SW16      30.14R
HOBBS          CLEAR     73  61  64 S12       30.00S
MARFA          MOCLDY    66  63  88 E3        30.15R
MIDLAND AIRPK  NOT AVBL
MIDLAND INTL   MOCLDY    74  64  71 S9        29.98R
ODESSA         MOCLDY    76  64  66 S10       29.99R
PECOS          MOCLDY    75  63  65 CALM      29.93R
PRESIDIO       FAIR      77  64  65 E3        30.00R
SEMINOLE       MOCLDY    73  62  68 S9        30.00S
SNYDER         MOCLDY    77  66  67 S12       29.98S
WINK           PTCLDY    77  64  64 SE9       29.94R
$$
...OTHER STATIONS IN TEXAS...

CITY           SKY/WX    TMP DP  RH WIND       PRES   REMARKS
ABILENE        PTCLDY    79  69  71 S14       29.98R
AMARILLO       PTCLDY    72  63  73 S14       29.99S
AUSTIN         PTCLDY    80  75  84 S7        29.99S
BROWNSVILLE    CLEAR     80  76  87 S9        29.98S
CORPUS CHRISTI PTCLDY    81  76  84 S14       29.98R
DALLAS FTW     CLEAR     80  72  76 S15       29.97R
DEL RIO        CLOUDY    83  71  67 E8        29.93R
EL PASO        FAIR      80  47  31 W10G21    30.01R
HOUSTON INT    PTCLDY    81  78  91 S3        30.02R
LUBBOCK        MOCLDY    75  61  61 S13       29.99S
SAN ANGELO     PTCLDY    78  70  76 S12       29.98R
SAN ANTONIO    CLOUDY    83  74  74 S16G24    30.00R
WACO           CLEAR     79  74  84 S17       29.99R
WICHITA FALLS  NOT AVBL
$$
...OTHER LOCATIONS IN NEW MEXICO...

CITY           SKY/WX    TMP DP  RH WIND       PRES   REMARKS
ALAMAGORDO     PTCLDY    64  46  52 SE5       30.02S
ALBUQUERQUE    CLEAR     64  46  52 SE5       30.11R
CANNON AFB     CLEAR     68  63  83 S8        30.02R
CLOVIS           N/A     66  61  82 S8        30.05R
HOLLOMAN AFB   PTCLDY    72  48  42 SE9       30.00R
ROSWELL        CLEAR     68  61  78 E6        29.95S
RUIDOSO        CLEAR     59  46  63 W7        30.21R
SANTA FE       CLEAR     57  40  52 N8        30.15R
TRUTH OR CONSE FAIR      67  48  50 N5        30.06R
TUCUMCARI      CLEAR     74  58  57 S15       29.95R
$$

USA.gov is the U.S. government's official web portal to all federal, state and local government web resources and services.